Aeroporto :
LOGIN :

Iscrizione | Disclaimer

   EN    FR    IT 

 










Sommario :    VFR   VFR Marginale   IFR   IFR Intensivo   IFR Molto Intensivo
Visibilità : 
Base nubi : 
>= 8 km
>= 3000ft
5 / 8 km
1000 / 3000 ft
1500m / 5 km
500 / 1000 ft
800 / 1500m
200 / 500 ft
< 800m
< 200 ft
Simboli :   Temporali  Nebbia  Neve Forte  Precipitazioni Forti  Vento > 20 kt
SIGMETs :   Varie  Temporali  Ghiacco  Turbolenza  Onda orograficha  Ceneri Vulcaniche







- Altitudine del aeroporto : 239 ft
- Codice IATA : VRN


LIPX - Villafranca Int. Verona

ULTIMO METAR :
  • 231420Z VRB04KT 9999 SCT040 24/14 Q1014

METARs OBSOLETI :
  • 231350Z 22004KT 130V260 9999 SCT040 24/14 Q1014
  • 231320Z VRB03KT 9999 SCT040 23/15 Q1014
  • 231250Z VRB03KT 9999 SCT040 23/13 Q1014
  • 231220Z 30004KT 240V040 9999 BKN040 23/14 Q1015
  • 231150Z 23006KT 190V250 9999 BKN040 23/12 Q1015

TAF TAF LIPX
Valido dal 23 a 15 ore il 24 a 00 ore UTC


231400Z 2315/2324 22005KT 9999 SCT050
TEMPO 2321/2324 TSRA
Nessun NOTAM noto per questo aeroporto.



MetMap, La meteo Aeronautica in un colpo d'occhio ! - Copyright ORBIFLY Dicembre 2007 - Disclaimer

ORBIFLY MET'MAP TEAM :

Programmazione e sviluppo : Alexandra Zaïnal
Concezione e sviluppo : Baudouin d'Aumeries
Co-Programmazione e sviluppo : Marc-Olivier Méhu
Supporto tecnico e logistico : Manuel Goepfert
Aiuto per la traduzione : Arnaldo La Scala

Contatto : metmap@orbifly.com




FONTI E CREDITI :

   NOAA